User: anonymous   Login
Location: Long Geng
(2.6167°N, 114.1333°E)
Time: 22:36:45
(UTC+00:00)
Language:

Ariane 44LP R/B - Orbit

View from above orbital plane
View from above orbital plane
View from above satellite
View from above satellite

Ground track
Ground track

The orbit data is extracted from the following two-line orbital elements,

1 26471U 00046C   21211.81867060  .00000000  00000-0  12877-4 0  9992
2 26471   3.6046  68.6384 5575894 272.3796  28.2293  4.48443786272370
Epoch (UTC): 30 July 2021 19:38:53
Eccentricity: 0.5575894
inclination: 3.6046°
perigee height: 494 km
apogee height: 17816 km
right ascension of ascending node: 68.6384°
argument of perigee: 272.3796°
revolutions per day: 4.48443786
mean anomaly at epoch: 28.2293°
orbit number at epoch: 27237

The dashed part of the orbit path shows where the satellite is in the earth's shadow,  

DLR